Location: Banff
(51.1667°N, 115.5667°W)
Time: 13:02:11
(UTC+00:00)

Tiros 1 - Pass Details

Date: 29 July 2021
Orbit: 630 x 663 km, 48.4° (Epoch: 27 September)

Event Time Altitude Azimuth Distance (km) Brightness Sun altitude
Rises 05:33:44 0° 261° (W) 2,968 10.9 -14.1°
Reaches altitude 10° 05:36:06 10° 259° (WSW) 2,052 10.0 -14.3°
Maximum altitude 05:40:46 63° 179° (S) 720 7.1 -14.7°
Enters shadow 05:45:05 12° 99° (E) 1,914 9.2 -15.1°
